Location: Burgwalden
(48.2830°N, 10.7576°E)
Time: 03:05:45
(UTC+00:00)

Cosmos 1743 Rocket - Pass Details

Date: 26 September 2023
Orbit: 603 x 629 km, 82.6° (Epoch: 04 December)

Event Time Altitude Azimuth Distance (km) Brightness Sun altitude
Rises 04:25:16 0° 344° (NNW) 2,870 6.9 -8.0°
Reaches altitude 10° 04:27:33 10° 338° (NNW) 1,962 6.0 -7.6°
Maximum altitude 04:31:40 43° 267° (W) 854 3.8 -7.0°
Drops below altitude 10° 04:35:46 10° 196° (SSW) 1,956 5.9 -6.3°
Sets 04:38:03 0° 190° (S) 2,859 6.8 -5.9°
